Simultaneous Nadir Overpasses (SNOs) Predictions

Prediction of SNOs between GOES-14 and AQUA Satellite Orbit:

Table of predicted SNOs for the next 14.0 days since TLE Epoch: 12/17/2023
Index Date Time (GOES-14) GOES-14 Lat,Lon AQUA Lat,Lon Distance(km) Time Diff (sec)
1 12/18/2023 09:13:58 -0.08,-108.62 -0.09,-108.49 13.88 80
2 12/20/2023 08:58:46 -0.08,-108.62 -0.87,-104.78 436.13 80
3 12/20/2023 21:16:43 0.09,-108.60 -0.14,-109.78 133.89 80
4 12/22/2023 21:04:10 0.08,-108.60 0.62,-106.06 288.94 80
5 12/23/2023 09:21:59 -0.09,-108.62 0.42,-111.02 273.08 80
6 12/25/2023 09:09:26 -0.07,-108.62 -0.38,-107.31 149.78 80
7 12/25/2023 21:27:22 0.08,-108.60 -0.73,-112.29 420.00 80
8 12/27/2023 21:12:08 0.07,-108.60 0.06,-108.56 3.87 80
9 12/29/2023 20:59:34 0.07,-108.59 0.87,-104.85 426.25 80
10 12/30/2023 09:17:23 -0.07,-108.61 0.16,-109.81 135.71 80
